Weather History for KCHO - December, 2012

Change the Weather History Date:

Sunday, December 23, 2012

  Actual Average Record
Temperature  
Mean Temperature 38 °F 36 °F  
Max Temperature 48 °F 45 °F 68 °F (1933)
Min Temperature 27 °F 27 °F 1 °F (1989)
Degree Days  
Heating Degree Days 27 29  
Month to date heating degree days 436 609  
Since 1 July heating degree days 1345 1500  
Cooling Degree Days 0 0  
Month to date cooling degree days 0 0  
Year to date cooling degree days 1604 1035  
Moisture  
Dew Point 17 °F    
Average Humidity 43    
Maximum Humidity 52    
Minimum Humidity 34    
Precipitation  
Precipitation 0.00 in 0.10 in 1.41 in (2004)
Month to date precipitation 1.35 2.56  
Year to date precipitation 35.08 42.12  
Sea Level Pressure  
Sea Level Pressure 29.99 in    
Wind  
Wind Speed 5 mph (SSW)    
Max Wind Speed 15 mph    
Max Gust Speed 43 mph    
Visibility 10 miles    
Events      
T = Trace of Precipitation, MM = Missing Value Source: NWS Daily Summary

Daily Weather History Graph

Daily Weather History Graph

Search for Another Location

Airport or City:

Trip Planner

Search our weather history database for the weather conditions in past years. The results will help you decide how hot, cold, wet, or windy it might be!

Date:

Astronomy

Dec. 23, 2012 Rise Set
Actual Time 7:27 AM EST 4:58 PM EST
Civil Twilight 6:58 AM EST 5:28 PM EST
Nautical Twilight 6:25 AM EST 6:01 PM EST
Astronomical Twilight 5:52 AM EST 6:33 PM EST
Moon 1:46 PM EST (12/23) 3:10 AM EST (12/23)
Length of Visible Light 10h 30m
Length of Day
9h 30m
Waxing Gibbous, 81% of the Moon is Illuminated
Dec 23
Waxing Gibbous
Dec 28
Full
Jan 4
Last Quarter
Jan 11
New
Jan 18
First Quarter

Hourly Weather History & Observations

Time (EST) Temp. Windchill Dew Point Humidity Pressure Visibility Wind Dir Wind Speed Gust Speed Precip Events Conditions
12:53 AM 33.1 °F 30.0 °F 10.0 °F 38% 30.04 in 10.0 mi West 3.5 mph - N/A   Clear
1:53 AM 34.0 °F - 10.0 °F 37% 30.05 in 10.0 mi Calm Calm - N/A   Clear
2:53 AM 34.0 °F - 10.0 °F 37% 30.07 in 10.0 mi Calm Calm - N/A   Clear
3:53 AM 33.1 °F - 10.9 °F 40% 30.06 in 10.0 mi Calm Calm - N/A   Clear
4:53 AM 34.0 °F - 10.9 °F 38% 30.04 in 10.0 mi Calm Calm - N/A   Clear
5:53 AM 33.1 °F - 12.0 °F 42% 30.06 in 10.0 mi Calm Calm - N/A   Clear
6:53 AM 32.0 °F 28.7 °F 12.0 °F 44% 30.06 in 10.0 mi WNW 3.5 mph - N/A   Clear
7:53 AM 28.9 °F - 12.9 °F 51% 30.05 in 10.0 mi Calm Calm - N/A   Clear
8:53 AM 34.0 °F 31.0 °F 14.0 °F 44% 30.04 in 10.0 mi South 3.5 mph - N/A   Clear
9:53 AM 37.9 °F - 14.0 °F 38% 30.04 in 10.0 mi Calm Calm - N/A   Clear
10:53 AM 37.9 °F 34.4 °F 15.1 °F 39% 30.02 in 10.0 mi South 4.6 mph - N/A   Clear
11:53 AM 39.0 °F 36.8 °F 17.1 °F 41% 29.99 in 10.0 mi SSE 3.5 mph - N/A   Clear
12:53 PM 44.1 °F 42.5 °F 19.0 °F 37% 29.95 in 10.0 mi SSE 3.5 mph - N/A   Clear
1:53 PM 48.0 °F - 21.0 °F 34% 29.92 in 10.0 mi South 9.2 mph - N/A   Clear
2:53 PM 46.9 °F - 19.9 °F 34% 29.91 in 10.0 mi South 12.7 mph - N/A   Clear
3:53 PM 46.0 °F 40.2 °F 21.0 °F 37% 29.91 in 10.0 mi South 12.7 mph - N/A   Clear
4:53 PM 45.0 °F 40.1 °F 19.9 °F 37% 29.91 in 10.0 mi SSW 9.2 mph - N/A   Clear
5:53 PM 41.0 °F 35.8 °F 21.0 °F 45% 29.92 in 10.0 mi SSW 8.1 mph - N/A   Clear
6:53 PM 39.0 °F 34.0 °F 21.0 °F 49% 29.93 in 10.0 mi South 6.9 mph - N/A   Clear
7:53 PM 39.9 °F 34.5 °F 21.9 °F 49% 29.94 in 10.0 mi SSW 8.1 mph - N/A   Clear
8:53 PM 37.9 °F 32.1 °F 21.9 °F 53% 29.95 in 10.0 mi South 8.1 mph - N/A   Clear
9:53 PM 39.9 °F 35.8 °F 21.9 °F 49% 29.96 in 10.0 mi SSW 5.8 mph - N/A   Clear
10:53 PM 41.0 °F 38.0 °F 21.9 °F 47% 29.98 in 10.0 mi SSW 4.6 mph - N/A   Clear
11:53 PM 34.0 °F - 23.0 °F 64% 29.98 in 10.0 mi Calm Calm - N/A   Clear